Home   Weather   Hürth   Past weeks

Flag for Germany Past Weather in Hürth, North Rhine-Westphalia, Germany — Yesterday and Last 2 Weeks

Now
18 °F

Passing clouds.


Feels Like: 12 °F
Forecast: 19 / 35 °F
Wind: 3 mph from South

Location: Noervenich

Current Time: Jan 19, 2017 at 7:34:26 am

Latest Report: Jan 19, 2017 at 6:20 am


Visibility: N/A

Pressure: 30.63 "Hg

Humidity: 93%

Dew Point: 16 °F

Location of HürthLocation

Past Weather in Hürth — Graph

°F

Hürth Temperature Yesterday

Maximum temperature yesterday: 30 °F (at 2:20 pm)
Minimum temperature yesterday: 18 °F (at 4:20 am)
Average temperature yesterday: 22 °F

High & Low Weather Summary for the Past Weeks

 TemperatureHumidityPressure
High46 °F (Jan 11, 12:20 pm)100% (Jan 7, 4:20 pm)30.74 "Hg (Jan 7, 4:20 pm)
Low18 °F (Jan 6, 5:20 am)55% (Jan 6, 3:20 pm)28.94 "Hg (Jan 13, 1:20 am)
Average33 °F86%30.15 "Hg
* Reported Jan 4 6:35 am — Jan 19 6:20 am, Hürth, Weather by CustomWeather, © 2017

Note: Actual official high and low records may vary slightly from our data, if they occured in-between our weather recording intervals... More about our weather records

Advertising

Hürth Weather History for the Previous 24 Hours

Scroll right to see more
 ConditionsComfort  
Time TempWeatherWind HumidityBarometerVisibility
6:20 am
Thu, Jan 19
18 °FPassing clouds.3 mph93%30.63 "HgN/A
5:20 am18 °FCold.3 mph93%30.63 "HgN/A
4:20 am18 °FCold.2 mph93%30.63 "HgN/A
3:20 am18 °FCold.1 mph93%30.63 "HgN/A
2:20 am18 °FCold.1 mph93%30.63 "HgN/A
1:20 am19 °FCold.1 mph86%30.63 "HgN/A
12:20 am19 °FCold.2 mph93%30.63 "HgN/A
11:20 pm
Wed, Jan 18
19 °FCold.5 mph93%30.63 "HgN/A
10:20 pm19 °FPassing clouds.No wind93%30.63 "HgN/A
10:07 pm19 °FPassing clouds.1 mph93%30.63 "HgN/A
9:20 pm21 °FPassing clouds.1 mph93%30.63 "HgN/A
8:20 pm23 °FPassing clouds.1 mph86%30.63 "HgN/A
7:20 pm23 °FPassing clouds.2 mph86%30.63 "HgN/A
6:20 pm27 °FPassing clouds.3 mph80%30.66 "HgN/A
5:20 pm28 °FPassing clouds.1 mph74%30.66 "HgN/A
4:20 pm30 °FPassing clouds.2 mph69%30.66 "HgN/A
3:20 pm30 °FScattered clouds.3 mph64%30.66 "HgN/A
2:20 pm30 °FPartly sunny.6 mph64%30.66 "HgN/A
1:20 pm28 °FPartly sunny.6 mph69%30.66 "HgN/A
12:20 pm27 °FPartly sunny.6 mph80%30.69 "HgN/A
11:20 am25 °FScattered clouds.3 mph80%30.69 "HgN/A
10:20 am23 °FPassing clouds.3 mph86%30.69 "HgN/A
9:20 am19 °FPassing clouds.3 mph93%30.69 "HgN/A
8:20 am18 °FPassing clouds.2 mph93%30.66 "Hg5 mi
7:20 am18 °FCold.1 mph93%30.66 "HgN/A
Weather by CustomWeather, © 2017

See weather overviewHow to use our weather pages